Jonesville, VA

8:52 PM EST on February 24, 2017 (GMT -0500)
Jonesville

Weather History for K0VG - June, 2014

Change the Weather History Date:

Wednesday, June 18, 2014

  Actual Average (KLNP) Record (KLNP)
Temperature  
Mean Temperature 76 °F -  
Max Temperature 89 °F 76 °F 91 °F (2007)
Min Temperature 62 °F 56 °F 46 °F (1999)
Cooling Degree Days 10    
Growing Degree Days 26 (Base 50)    
Moisture  
Dew Point 66 °F    
Average Humidity 74    
Maximum Humidity 100    
Minimum Humidity 40    
Precipitation  
Precipitation 0.00 in - - ()
Sea Level Pressure  
Sea Level Pressure 30.18 in    
Wind  
Wind Speed 2 mph (WSW)    
Max Wind Speed 9 mph    
Max Gust Speed -    
Visibility 10 miles    
Events      
Averages and records for this station are not official NWS values.
T = Trace of Precipitation, MM = Missing Value Source: NWS Daily Summary

Daily Weather History Graph

Daily Weather History Graph

Search for Another Location

Airport or City:

Trip Planner

Search our weather history database for the weather conditions in past years. The results will help you decide how hot, cold, wet, or windy it might be!

Date:

Astronomy

Jun. 18, 2014 Rise Set
Actual Time 6:14 AM EDT 8:54 PM EDT
Civil Twilight 5:43 AM EDT 9:24 PM EDT
Nautical Twilight 5:05 AM EDT 10:02 PM EDT
Astronomical Twilight 4:22 AM EDT 10:45 PM EDT
Moon 12:30 AM EDT (6/18) 12:27 PM EDT (6/18)
Length of Visible Light 15h 41m
Length of Day
14h 40m
Waning Gibbous, 63% of the Moon is Illuminated
Jun 18
Waning Gibbous
Jun 19
Last Quarter
Jun 27
New
Jul 5
First Quarter
Jul 12
Full

Hourly Weather History & Observations

Time (EDT) Temp. Heat Index Dew Point Humidity Pressure Visibility Wind Dir Wind Speed Gust Speed Precip Events Conditions
12:15 AM 68.0 °F - 66.2 °F 94% 30.19 in 10.0 mi Calm Calm - N/A   Unknown
12:35 AM 68.0 °F - 66.2 °F 94% 30.20 in 10.0 mi Calm Calm - N/A   Unknown
1:15 AM 66.2 °F - 66.2 °F 100% 30.19 in 10.0 mi Calm Calm - N/A   Unknown
1:35 AM 66.2 °F - 66.2 °F 100% 30.19 in 10.0 mi Calm Calm - N/A   Unknown
2:15 AM 66.2 °F - 66.2 °F 100% 30.18 in 10.0 mi Calm Calm - N/A   Unknown
2:35 AM 66.2 °F - 66.2 °F 100% 30.18 in 9.0 mi Calm Calm - N/A   Unknown
2:55 AM 66.2 °F - 64.4 °F 94% 30.18 in 10.0 mi Calm Calm - N/A   Unknown
3:15 AM 64.4 °F - 64.4 °F 100% 30.18 in 8.0 mi Calm Calm - N/A   Unknown
3:35 AM 64.4 °F - 64.4 °F 100% 30.18 in 8.0 mi Calm Calm - N/A   Unknown
3:55 AM 64.4 °F - 64.4 °F 100% 30.18 in 7.0 mi Calm Calm - N/A   Mostly Cloudy
4:15 AM 64.4 °F - 64.4 °F 100% 30.18 in 9.0 mi Calm Calm - N/A   Mostly Cloudy
4:35 AM 64.4 °F - 64.4 °F 100% 30.18 in 8.0 mi Calm Calm - N/A   Overcast
4:55 AM 64.4 °F - 64.4 °F 100% 30.19 in 8.0 mi Calm Calm - N/A   Mostly Cloudy
5:15 AM 64.4 °F - 64.4 °F 100% 30.18 in 9.0 mi Calm Calm - N/A   Mostly Cloudy
5:35 AM 62.6 °F - 62.6 °F 100% 30.19 in 9.0 mi Calm Calm - N/A   Unknown
5:55 AM 64.4 °F - 62.6 °F 94% 30.19 in 9.0 mi Calm Calm - N/A   Unknown
6:15 AM 62.6 °F - 62.6 °F 100% 30.20 in 9.0 mi Calm Calm - N/A   Unknown
6:35 AM 62.6 °F - 62.6 °F 100% 30.19 in 5.0 mi Calm Calm - N/A   Mist
6:55 AM 62.6 °F - 62.6 °F 100% 30.20 in 5.0 mi Calm Calm - N/A   Clear
7:15 AM 64.4 °F - 64.4 °F 100% 30.20 in 6.0 mi Calm Calm - N/A   Clear
7:35 AM 66.2 °F - 64.4 °F 94% 30.20 in 8.0 mi Calm Calm - N/A   Clear
7:55 AM 68.0 °F - 66.2 °F 94% 30.20 in 9.0 mi Calm Calm - N/A   Clear
8:15 AM 69.8 °F - 66.2 °F 88% 30.20 in 10.0 mi Calm Calm - N/A   Clear
8:35 AM 71.6 °F - 66.2 °F 83% 30.20 in 10.0 mi Calm Calm - N/A   Clear
8:55 AM 73.4 °F - 66.2 °F 78% 30.21 in 10.0 mi Calm Calm - N/A   Clear
9:15 AM 75.2 °F - 68.0 °F 78% 30.22 in 10.0 mi Calm Calm - N/A   Clear
9:35 AM 77.0 °F - 68.0 °F 74% 30.23 in 10.0 mi Calm Calm - N/A   Clear
10:15 AM 80.6 °F 83.2 °F 68.0 °F 65% 30.23 in 10.0 mi SSW 3.5 mph - N/A   Clear
10:35 AM 82.4 °F 85.4 °F 68.0 °F 62% 30.23 in 10.0 mi SW 4.6 mph - N/A   Clear
10:55 AM 82.4 °F 85.4 °F 68.0 °F 62% 30.22 in 10.0 mi Calm Calm - N/A   Clear
11:15 AM 84.2 °F 87.3 °F 68.0 °F 58% 30.22 in 10.0 mi WSW 3.5 mph - N/A   Clear
11:35 AM 84.2 °F 87.3 °F 68.0 °F 58% 30.22 in 10.0 mi Calm Calm - N/A   Partly Cloudy
11:55 AM 86.0 °F 89.4 °F 68.0 °F 55% 30.22 in 10.0 mi WSW 3.5 mph - N/A   Partly Cloudy
12:15 PM 86.0 °F 89.4 °F 68.0 °F 55% 30.21 in 10.0 mi SW 6.9 mph - N/A   Scattered Clouds
12:35 PM 84.2 °F 87.3 °F 68.0 °F 58% 30.20 in 10.0 mi West 4.6 mph - N/A   Mostly Cloudy
12:55 PM 86.0 °F 88.2 °F 66.2 °F 51% 30.19 in 10.0 mi WSW 6.9 mph - N/A   Partly Cloudy
1:15 PM 87.8 °F 90.4 °F 66.2 °F 49% 30.18 in 10.0 mi West 6.9 mph - N/A   Clear
1:35 PM 87.8 °F 89.4 °F 64.4 °F 46% 30.17 in 10.0 mi WSW 8.1 mph - N/A   Clear
2:15 PM 89.6 °F 91.1 °F 64.4 °F 43% 30.17 in 10.0 mi SW 9.2 mph - N/A   Partly Cloudy
2:35 PM 89.6 °F 92.2 °F 66.2 °F 46% 30.16 in 10.0 mi West 9.2 mph - N/A   Clear
2:55 PM 89.6 °F 90.1 °F 62.6 °F 40% 30.17 in 10.0 mi West 8.1 mph - N/A   Partly Cloudy
3:35 PM 87.8 °F 91.4 °F 68.0 °F 52% 30.17 in 10.0 mi WNW 5.8 mph - N/A   Clear
3:55 PM 89.6 °F 90.1 °F 62.6 °F 40% 30.16 in 10.0 mi WSW 4.6 mph - N/A   Clear
4:30 PM 87.8 °F 89.4 °F 64.4 °F 46% 30.14 in 10.0 mi WSW 8.1 mph - N/A   Clear
4:55 PM 86.0 °F 88.2 °F 66.2 °F 51% 30.14 in 10.0 mi West 5.8 mph - N/A   Clear
5:15 PM 84.2 °F 87.3 °F 68.0 °F 58% 30.15 in 10.0 mi WSW 6.9 mph - N/A   Clear
5:35 PM 84.2 °F 87.3 °F 68.0 °F 58% 30.15 in 10.0 mi West 5.8 mph - N/A   Clear
5:55 PM 86.0 °F 89.4 °F 68.0 °F 55% 30.14 in 10.0 mi West 4.6 mph - N/A   Clear
6:15 PM 86.0 °F 88.2 °F 66.2 °F 51% 30.13 in 10.0 mi West 3.5 mph - N/A   Clear
6:35 PM 86.0 °F 88.2 °F 66.2 °F 51% 30.13 in 10.0 mi WSW 4.6 mph - N/A   Clear
6:55 PM 86.0 °F 88.2 °F 66.2 °F 51% 30.13 in 10.0 mi West 3.5 mph - N/A   Clear
7:15 PM 86.0 °F 88.2 °F 66.2 °F 51% 30.14 in 10.0 mi SSW 3.5 mph - N/A   Clear
7:35 PM 86.0 °F 88.2 °F 66.2 °F 51% 30.14 in 10.0 mi South 5.8 mph - N/A   Clear
7:55 PM 86.0 °F 88.2 °F 66.2 °F 51% 30.14 in 10.0 mi SW 6.9 mph - N/A   Clear
8:15 PM 84.2 °F 87.3 °F 68.0 °F 58% 30.13 in 10.0 mi SW 5.8 mph - N/A   Clear
8:35 PM 82.4 °F 84.6 °F 66.2 °F 58% 30.14 in 10.0 mi SSW 5.8 mph - N/A   Clear
8:55 PM 82.4 °F 84.6 °F 66.2 °F 58% 30.15 in 10.0 mi Calm Calm - N/A   Clear
9:15 PM 77.0 °F - 68.0 °F 74% 30.15 in 10.0 mi Calm Calm - N/A   Clear
9:35 PM 75.2 °F - 68.0 °F 78% 30.15 in 10.0 mi Calm Calm - N/A   Clear
9:55 PM 75.2 °F - 68.0 °F 78% 30.15 in 10.0 mi Calm Calm - N/A   Unknown
10:15 PM 73.4 °F - 68.0 °F 83% 30.16 in 10.0 mi Calm Calm - N/A   Unknown
10:35 PM 71.6 °F - 68.0 °F 88% 30.17 in 10.0 mi Calm Calm - N/A   Clear
10:55 PM 73.4 °F - 68.0 °F 83% 30.17 in 10.0 mi Calm Calm - N/A   Unknown
11:15 PM 69.8 °F - 68.0 °F 94% 30.18 in 10.0 mi Calm Calm - N/A   Unknown
11:35 PM 71.6 °F - 66.2 °F 83% 30.18 in 10.0 mi Calm Calm - N/A   Unknown
11:55 PM 69.8 °F - 68.0 °F 94% 30.17 in 10.0 mi Calm Calm - N/A   Partly Cloudy